Regional Weather Roundup
Issued by NWS Cleveland, OH

Home | Current Version | Previous Version | Text Only | Print | Product List | Glossary Off
Versions: 1 2 3 4 5 6 7 8 9 10 11 12 13 14 15 16 17 18 19 20 21 22 23 24 25 26 27 28 29 30 31 32 33 34 35 36 37 38 39 40 41 42 43 44 45 46 47 48 49 50

000
ASUS41 KCLE 301300
RWRCLE
OHIO REGIONAL WEATHER ROUNDUP
NATIONAL WEATHER SERVICE WILMINGTON, OH
900 AM EDT SUN APR 30 2017

NOTE: "FAIR" INDICATES FEW OR NO CLOUDS BELOW 12,000 FEET WITH NO
SIGNIFICANT WEATHER AND/OR OBSTRUCTIONS TO VISIBILITY.

OHZ001>008-015>018-024>027-034-035-043-044-301400-
   NORTHWEST OHIO

CITY           SKY/WX    TMP DP  RH WIND       PRES   REMARKS
DEFIANCE       CLOUDY    48  47  96 NE6       29.95F FOG
FINDLAY        FOG       54  51  90 SE8       29.92F VSB 1/2
TOLEDO EXPRESS CLOUDY    49  48  97 NE8       29.97S
TOLEDO EXEC    CLOUDY    51  48  89 E10       29.97F
LIMA           CLOUDY    59  58  96 SE12      29.92S
$$

OHZ009>014-019>023-028>033-038-089-301400-
   NORTHEAST OHIO

CITY           SKY/WX    TMP DP  RH WIND       PRES   REMARKS
CLE-HOPKINS    PTSUNNY   58  50  75 CALM      30.01F
CLE-LAKEFRONT  FAIR      53  48  83 NE8       29.99F
CUY CO. ARPT   MOSUNNY   59  54  82 E7        30.01F
LORAIN-ELYRIA  CLOUDY    55  49  80 SE6       29.98F
ASHTABULA      FAIR      51  46  83 E5        30.05F
AKRON-CANTON   PTSUNNY   63  58  83 S9        30.02S
WOOSTER        CLOUDY    58  57  97 SE8       30.01F FOG
MANSFIELD      CLOUDY    58  58 100 SE14      29.98F FOG
YOUNGSTOWN     PTSUNNY   62  57  83 SE6       30.03F
$$

OHZ042-051>053-060>062-070>072-077>081-301400-
  SOUTHWEST OHIO

CITY           SKY/WX    TMP DP  RH WIND       PRES   REMARKS
CINC-COVINGTON PTSUNNY   72  66  81 S13       29.92S
CINC-LUNKEN    FAIR      68  67  96 W3        29.93S
HAMILTON       PTSUNNY   66  64  93 E3        29.92F
DAYTON         NOT AVBL
WRIGHT-PAT AFB NOT AVBL
DAYTON GENERAL FAIR      69  65  86 S9        29.93S
WILMINGTON     FAIR      70  67  90 SE5       29.96R
$$

OHZ036-037-039>041-045>050-054>059-063>069-073>076-082>088-301400-
  CENTRAL AND SOUTHEAST OHIO

CITY           SKY/WX    TMP DP  RH WIND       PRES   REMARKS
COLUMBUS       PTSUNNY   67  64  90 SE9       29.97F
OSU AIRPORT    FAIR      65  64  97 SE7       29.96F
BOLTON FIELD   SUNNY     63  63 100 S6        29.98S FOG
RICKENBACK AFB NOT AVBL
NEWARK         FOG       61  60  97 CALM      29.99F VSB 1
MARION         FAIR      64  61  90 S12       29.96F
LANCASTER      FAIR      68  63  84 SE7       29.99F
ZANESVILLE     FAIR      66  62  87 SE5       30.00F
NEW PHILLY     FAIR      64  61  90 SE5       30.03S
$$




USA.gov is the U.S. government's official web portal to all federal, state and local government web resources and services.